Wetterstation Vordersexau
Wetterdaten: Jahr 2016
Datum Temp. A. Feuchte A. Luftdruck Regen Wind Richtung Taupunkt Windchill Windben
01.01.2016 5,6 C 87 % 1021,3 hPa 0,0 l/m 0,1 km/h SO 3,5 C 5,6 C 0,0 km/h
02.01.2016 5,3 C 86 % 1011,1 hPa 5,8 l/m 0,1 km/h O-SO 3,1 C 5,3 C 0,1 km/h
03.01.2016 7,0 C 79 % 1004,2 hPa 0,0 l/m 7,4 km/h SW 3,6 C 4,7 C 4,1 km/h
04.01.2016 6,5 C 84 % 992,2 hPa 5,4 l/m 12,7 km/h W-SW 3,9 C 2,0 C 7,1 km/h
05.01.2016 6,4 C 83 % 994,3 hPa 1,7 l/m 6,9 km/h S-SW 3,6 C 4,2 C 3,8 km/h
06.01.2016 5,3 C 85 % 998,3 hPa 9,5 l/m 3,7 km/h SO 3,0 C 4,2 C 2,1 km/h
07.01.2016 5,8 C 86 % 997,2 hPa 4,6 l/m 6,6 km/h O-SO 3,6 C 3,6 C 3,6 km/h
08.01.2016 5,7 C 86 % 1003,5 hPa 3,7 l/m 2,9 km/h SO 3,5 C 4,7 C 1,6 km/h
09.01.2016 6,0 C 88 % 1000,8 hPa 0,4 l/m 0,6 km/h SO 4,0 C 5,8 C 0,4 km/h
10.01.2016 7,0 C 82 % 996,4 hPa 2,9 l/m 9,9 km/h S 4,1 C 3,7 C 5,5 km/h
11.01.2016 6,7 C 83 % 991,9 hPa 12,8 l/m 10,2 km/h SO 4,0 C 3,2 C 5,7 km/h
12.01.2016 5,7 C 85 % 1000,4 hPa 6,2 l/m 19,9 km/h W-SW 3,4 C -1,2 C 11,0 km/h
13.01.2016 4,0 C 83 % 1014,4 hPa 0,0 l/m 16,8 km/h W-SW 1,4 C -2,3 C 9,3 km/h
14.01.2016 2,9 C 81 % 1009,6 hPa 0,0 l/m 7,7 km/h W-SW -0,3 C -0,2 C 4,3 km/h
15.01.2016 2,1 C 80 % 1011,2 hPa 0,4 l/m 17,3 km/h W-SW -1,0 C -4,4 C 9,6 km/h
16.01.2016 0,4 C 89 % 1020,0 hPa 2,9 l/m 0,0 km/h W -1,3 C 0,4 C 0,0 km/h
17.01.2016 -1,4 C 85 % 1021,8 hPa 2,5 l/m 0,3 km/h N-NO -3,6 C -1,4 C 0,2 km/h
18.01.2016 -6,4 C 85 % 1016,1 hPa 0,0 l/m 0,0 km/h NW -8,5 C -6,4 C 0,0 km/h
19.01.2016 -2,0 C 85 % 1012,7 hPa 0,0 l/m 0,0 km/h N -4,2 C -2,0 C 0,0 km/h
20.01.2016 -2,7 C 88 % 1016,8 hPa 0,0 l/m 0,0 km/h N -4,4 C -2,7 C 0,0 km/h
21.01.2016 -5,1 C 86 % 1023,0 hPa 0,4 l/m 0,0 km/h SO -7,0 C -5,1 C 0,0 km/h
22.01.2016 -2,6 C 82 % 1025,6 hPa 1,2 l/m 0,0 km/h O-SO -5,3 C -2,6 C 0,0 km/h
23.01.2016 3,9 C 87 % 1031,2 hPa 5,0 l/m 3,2 km/h SO 2,0 C 2,8 C 1,8 km/h
24.01.2016 3,1 C 84 % 1031,5 hPa 0,0 l/m 2,7 km/h SO 0,7 C 2,2 C 1,5 km/h
25.01.2016 5,9 C 76 % 1026,9 hPa 0,0 l/m 0,1 km/h SO 1,6 C 5,9 C 0,0 km/h
26.01.2016 8,6 C 74 % 1025,4 hPa 0,0 l/m 5,2 km/h SO 3,9 C 7,6 C 2,9 km/h
27.01.2016 11,0 C 72 % 1021,5 hPa 0,0 l/m 3,7 km/h W-SW 6,0 C 10,3 C 2,1 km/h
28.01.2016 10,0 C 77 % 1022,7 hPa 5,4 l/m 7,8 km/h W-SW 6,1 C 7,8 C 4,4 km/h
29.01.2016 7,4 C 80 % 1028,2 hPa 1,7 l/m 8,5 km/h NW 4,1 C 4,6 C 4,7 km/h
30.01.2016 7,7 C 78 % 1018,9 hPa 6,2 l/m 22,8 km/h W-SW 4,1 C 0,1 C 12,7 km/h
31.01.2016 7,9 C 87 % 1013,8 hPa 7,0 l/m 10,5 km/h W 5,9 C 5,0 C 5,8 km/h
01.02.2016 12,1 C 78 % 1022,8 hPa 0,0 l/m 26,5 km/h W 8,3 C 4,6 C 14,7 km/h
02.02.2016 11,1 C 75 % 1020,4 hPa 0,0 l/m 22,2 km/h W-SW 6,9 C 4,2 C 12,4 km/h
03.02.2016 4,6 C 87 % 1019,7 hPa 5,0 l/m 2,9 km/h SO 2,6 C 3,7 C 1,6 km/h
04.02.2016 4,0 C 87 % 1025,5 hPa 1,2 l/m 14,8 km/h W 2,0 C -1,4 C 8,2 km/h
05.02.2016 7,4 C 82 % 1024,3 hPa 1,7 l/m 0,9 km/h SO 4,5 C 7,2 C 0,5 km/h
06.02.2016 7,6 C 75 % 1013,3 hPa 0,0 l/m 2,7 km/h SO 3,1 C 7,0 C 1,5 km/h
07.02.2016 6,1 C 81 % 1005,3 hPa 4,1 l/m 8,2 km/h W 3,0 C 3,2 C 4,6 km/h
08.02.2016 9,6 C 72 % 1004,9 hPa 4,1 l/m 29,5 km/h W 4,7 C 0,8 C 16,4 km/h
09.02.2016 8,9 C 77 % 996,7 hPa 3,7 l/m 16,9 km/h W-SW 5,1 C 3,6 C 9,4 km/h
10.02.2016 4,0 C 78 % 999,1 hPa 0,8 l/m 21,1 km/h W 0,4 C -4,1 C 11,7 km/h
11.02.2016 4,4 C 74 % 1005,3 hPa 0,0 l/m 11,0 km/h W-SW 0,1 C 0,1 C 6,1 km/h
12.02.2016 4,4 C 79 % 997,0 hPa 1,2 l/m 3,6 km/h S-SO 0,9 C 3,3 C 2,0 km/h
13.02.2016 6,7 C 82 % 988,5 hPa 3,3 l/m 12,9 km/h W 3,8 C 2,5 C 7,2 km/h
14.02.2016 6,5 C 83 % 989,4 hPa 3,3 l/m 8,7 km/h S-SW 3,7 C 3,6 C 4,9 km/h
15.02.2016 3,5 C 87 % 1009,3 hPa 2,5 l/m 0,0 km/h NO 1,6 C 3,5 C 0,0 km/h
16.02.2016 3,2 C 81 % 1026,3 hPa 0,0 l/m 3,4 km/h NO 0,2 C 2,2 C 1,9 km/h
17.02.2016 1,6 C 85 % 1016,8 hPa 0,0 l/m 0,5 km/h W -0,6 C 1,4 C 0,3 km/h
18.02.2016 5,1 C 78 % 1013,2 hPa 0,4 l/m 0,9 km/h SW 1,4 C 5,1 C 0,5 km/h
19.02.2016 2,6 C 86 % 1019,6 hPa 2,5 l/m 2,8 km/h SO 0,5 C 2,0 C 1,5 km/h
20.02.2016 5,8 C 82 % 1020,0 hPa 1,2 l/m 19,7 km/h W-SW 2,9 C -1,0 C 11,0 km/h
21.02.2016 11,6 C 78 % 1018,5 hPa 0,0 l/m 20,0 km/h W 7,8 C 6,0 C 11,1 km/h
22.02.2016 12,3 C 73 % 1011,9 hPa 0,0 l/m 17,5 km/h W-SW 7,6 C 7,5 C 9,7 km/h
23.02.2016 6,1 C 85 % 1011,9 hPa 8,3 l/m 11,9 km/h W 3,7 C 2,3 C 6,6 km/h
24.02.2016 5,3 C 76 % 1014,4 hPa 1,7 l/m 2,3 km/h SO 1,1 C 4,7 C 1,3 km/h
25.02.2016 3,0 C 84 % 1010,2 hPa 9,1 l/m 0,2 km/h SO 0,4 C 3,0 C 0,1 km/h
26.02.2016 3,2 C 75 % 1008,5 hPa 0,0 l/m 0,9 km/h SO -1,1 C 2,9 C 0,5 km/h
27.02.2016 2,2 C 73 % 1001,7 hPa 0,0 l/m 0,7 km/h O-NO -4,1 C 2,0 C 0,4 km/h
28.02.2016 1,7 C 65 % 1004,7 hPa 0,0 l/m 0,8 km/h S-SO -13,0 C 1,5 C 0,4 km/h
29.02.2016 2,3 C 79 % 1011,8 hPa 0,0 l/m 1,3 km/h NO -1,0 C 1,8 C 0,7 km/h
01.03.2016 4,1 C 75 % 1018,2 hPa 0,4 l/m 8,5 km/h NW -0,2 C 1,1 C 4,7 km/h
02.03.2016 5,4 C 85 % 1005,1 hPa 8,7 l/m 11,9 km/h W-SW 3,1 C 1,4 C 6,6 km/h
03.03.2016 3,3 C 85 % 1002,2 hPa 3,7 l/m 10,1 km/h W 1,0 C -0,6 C 5,6 km/h
04.03.2016 4,4 C 83 % 998,2 hPa 1,7 l/m 4,0 km/h SO 1,7 C 3,4 C 2,2 km/h
05.03.2016 5,7 C 81 % 993,8 hPa 3,7 l/m 5,0 km/h W-SW 2,7 C 4,3 C 2,8 km/h
06.03.2016 3,4 C 82 % 1001,0 hPa 5,0 l/m 11,1 km/h W 0,7 C -0,4 C 6,2 km/h
07.03.2016 3,5 C 78 % 1002,3 hPa 1,2 l/m 3,9 km/h W-NW -0,1 C 2,4 C 2,2 km/h
08.03.2016 2,0 C 86 % 1012,6 hPa 8,7 l/m 0,0 km/h W-NW -0,1 C 2,0 C 0,0 km/h
09.03.2016 4,0 C 73 % 1007,0 hPa 0,4 l/m 2,8 km/h SO -0,9 C 3,3 C 1,6 km/h
10.03.2016 6,4 C 72 % 1012,6 hPa 0,0 l/m 2,0 km/h SO 1,2 C 6,1 C 1,1 km/h
11.03.2016 5,4 C 71 % 1019,7 hPa 0,0 l/m 0,2 km/h NO 0,1 C 5,4 C 0,1 km/h
12.03.2016 6,7 C 71 % 1022,2 hPa 0,0 l/m 0,5 km/h O-NO 1,6 C 6,7 C 0,3 km/h
13.03.2016 7,8 C 66 % 1022,6 hPa 0,0 l/m 2,7 km/h NO 1,6 C 6,9 C 1,5 km/h
14.03.2016 8,3 C 56 % 1022,7 hPa 0,0 l/m 3,0 km/h O-SO -0,2 C 7,5 C 1,7 km/h
15.03.2016 3,4 C 76 % 1019,9 hPa 1,2 l/m 0,0 km/h N-NO -0,7 C 3,4 C 0,0 km/h
16.03.2016 6,0 C 61 % 1016,9 hPa 0,0 l/m 2,3 km/h NO -1,1 C 5,6 C 1,3 km/h
17.03.2016 5,7 C 69 % 1021,0 hPa 0,0 l/m 0,2 km/h NW -0,1 C 5,7 C 0,1 km/h
18.03.2016 8,1 C 64 % 1017,5 hPa 0,0 l/m 0,2 km/h O-NO 0,5 C 8,1 C 0,1 km/h
19.03.2016 5,6 C 72 % 1016,9 hPa 0,0 l/m 1,9 km/h O-SO 0,6 C 5,3 C 1,1 km/h
20.03.2016 5,0 C 75 % 1016,1 hPa 0,0 l/m 0,5 km/h N-NO 0,7 C 4,9 C 0,3 km/h
21.03.2016 8,3 C 68 % 1015,1 hPa 0,0 l/m 1,8 km/h N-NO 1,9 C 7,8 C 1,0 km/h
22.03.2016 8,7 C 61 % 1010,4 hPa 0,0 l/m 2,2 km/h O-SO 0,8 C 8,2 C 1,2 km/h
23.03.2016 6,2 C 75 % 1007,4 hPa 0,0 l/m 0,8 km/h SO 1,9 C 6,2 C 0,5 km/h
24.03.2016 6,8 C 70 % 1012,9 hPa 0,0 l/m 0,3 km/h SO 1,0 C 6,8 C 0,2 km/h
25.03.2016 6,5 C 83 % 1014,5 hPa 1,7 l/m 10,9 km/h SO 3,8 C 2,7 C 6,1 km/h
26.03.2016 13,6 C 66 % 1015,0 hPa 0,8 l/m 2,1 km/h NO 6,6 C 13,2 C 1,2 km/h
27.03.2016 8,3 C 74 % 1011,0 hPa 1,7 l/m 5,9 km/h S-SW 4,0 C 6,8 C 3,3 km/h
28.03.2016 9,0 C 72 % 1005,4 hPa 1,2 l/m 10,7 km/h SW 3,8 C 6,3 C 5,9 km/h
29.03.2016 11,9 C 63 % 1010,2 hPa 0,0 l/m 11,0 km/h W-SW 4,7 C 9,1 C 6,1 km/h
30.03.2016 11,9 C 81 % 1009,9 hPa 3,7 l/m 4,1 km/h S 8,7 C 11,0 C 2,3 km/h
31.03.2016 11,2 C 82 % 1005,4 hPa 0,0 l/m 1,0 km/h NO 8,2 C 11,2 C 0,6 km/h
01.04.2016 8,4 C 83 % 1013,3 hPa 0,4 l/m 1,5 km/h W-NW 5,7 C 8,3 C 0,8 km/h
02.04.2016 9,1 C 82 % 1013,6 hPa 0,0 l/m 0,2 km/h NW 6,1 C 9,1 C 0,1 km/h
03.04.2016 13,8 C 76 % 1009,4 hPa 0,4 l/m 1,1 km/h NW 9,4 C 13,7 C 0,6 km/h
04.04.2016 13,6 C 78 % 1006,2 hPa 0,8 l/m 0,4 km/h N-NO 9,6 C 13,6 C 0,2 km/h
05.04.2016 11,4 C 85 % 1006,6 hPa 10,4 l/m 1,8 km/h S-SO 8,9 C 11,0 C 1,0 km/h
06.04.2016 12,8 C 70 % 1011,7 hPa 1,2 l/m 7,9 km/h W 7,1 C 11,3 C 4,4 km/h
07.04.2016 9,3 C 76 % 1010,5 hPa 0,4 l/m 6,9 km/h SO 5,3 C 7,3 C 3,9 km/h
08.04.2016 9,1 C 70 % 1009,3 hPa 0,0 l/m 0,5 km/h O-SO 3,3 C 9,1 C 0,3 km/h
09.04.2016 8,0 C 77 % 1006,1 hPa 0,0 l/m 1,0 km/h S 4,0 C 7,8 C 0,5 km/h
10.04.2016 13,9 C 63 % 1007,0 hPa 0,0 l/m 4,0 km/h SO 6,1 C 13,2 C 2,2 km/h
11.04.2016 13,1 C 69 % 1007,8 hPa 4,1 l/m 2,1 km/h SO 7,0 C 12,8 C 1,2 km/h
12.04.2016 14,3 C 72 % 1008,5 hPa 5,0 l/m 1,1 km/h SO 8,9 C 14,2 C 0,6 km/h
13.04.2016 11,2 C 82 % 1006,6 hPa 3,7 l/m 3,6 km/h SO 8,1 C 10,4 C 2,0 km/h
14.04.2016 13,5 C 71 % 1010,0 hPa 0,8 l/m 4,4 km/h SO 7,8 C 12,7 C 2,5 km/h
15.04.2016 10,8 C 82 % 1006,6 hPa 14,1 l/m 4,3 km/h SO 7,8 C 9,7 C 2,4 km/h
16.04.2016 11,7 C 84 % 1003,3 hPa 12,0 l/m 7,0 km/h SO 9,0 C 10,0 C 3,9 km/h
17.04.2016 9,1 C 83 % 1008,4 hPa 17,8 l/m 1,5 km/h N-NO 6,3 C 8,7 C 0,8 km/h
18.04.2016 7,0 C 86 % 1018,2 hPa 5,0 l/m 0,8 km/h SO 4,8 C 6,8 C 0,4 km/h
19.04.2016 10,8 C 66 % 1023,2 hPa 0,0 l/m 0,7 km/h S 3,8 C 10,8 C 0,4 km/h
20.04.2016 14,0 C 60 % 1022,6 hPa 0,0 l/m 1,3 km/h SO 5,2 C 13,9 C 0,7 km/h
21.04.2016 13,4 C 65 % 1018,5 hPa 0,0 l/m 0,4 km/h W-NW 6,1 C 13,4 C 0,2 km/h
22.04.2016 15,3 C 66 % 1013,1 hPa 0,0 l/m 2,0 km/h N-NO 8,3 C 15,0 C 1,1 km/h
23.04.2016 8,7 C 84 % 1008,1 hPa 3,7 l/m 0,0 km/h N-NO 6,1 C 8,7 C 0,0 km/h
24.04.2016 5,8 C 75 % 1012,2 hPa 3,7 l/m 0,0 km/h N-NO 1,3 C 5,8 C 0,0 km/h
25.04.2016 5,1 C 80 % 1011,3 hPa 0,8 l/m 8,1 km/h W 1,8 C 2,2 C 4,5 km/h
26.04.2016 4,9 C 82 % 1003,7 hPa 10,8 l/m 9,5 km/h SO 2,1 C 1,6 C 5,3 km/h
27.04.2016 6,2 C 72 % 1009,5 hPa 0,4 l/m 10,2 km/h W 1,2 C 3,0 C 5,7 km/h
28.04.2016 6,4 C 72 % 1013,4 hPa 0,0 l/m 1,4 km/h O-SO 1,2 C 6,1 C 0,8 km/h
29.04.2016 9,8 C 64 % 1015,1 hPa 0,0 l/m 3,5 km/h SO 2,3 C 9,3 C 1,9 km/h
30.04.2016 10,5 C 69 % 1013,0 hPa 8,3 l/m 2,5 km/h W-NW 4,4 C 10,1 C 1,4 km/h
01.05.2016 8,1 C 84 % 1016,4 hPa 7,0 l/m 0,6 km/h N-NO 5,6 C 8,0 C 0,4 km/h
02.05.2016 13,3 C 70 % 1019,2 hPa 0,0 l/m 2,2 km/h N-NO 7,4 C 13,0 C 1,2 km/h
03.05.2016 9,9 C 78 % 1020,1 hPa 6,2 l/m 0,6 km/h SO 6,1 C 9,8 C 0,3 km/h
04.05.2016 12,1 C 63 % 1023,6 hPa 0,4 l/m 3,0 km/h O-NO 4,4 C 11,7 C 1,6 km/h
05.05.2016 16,1 C 47 % 1017,6 hPa 0,0 l/m 2,0 km/h O-SO 3,7 C 15,9 C 1,1 km/h
06.05.2016 17,7 C 58 % 1012,0 hPa 0,0 l/m 1,6 km/h O-SO 8,2 C 17,6 C 0,9 km/h
07.05.2016 18,2 C 59 % 1008,0 hPa 0,0 l/m 1,9 km/h SO 9,2 C 18,1 C 1,1 km/h
08.05.2016 19,6 C 54 % 1006,9 hPa 0,0 l/m 1,9 km/h O-NO 8,9 C 19,5 C 1,1 km/h
09.05.2016 18,2 C 62 % 1008,7 hPa 0,0 l/m 0,7 km/h NW 10,5 C 18,1 C 0,4 km/h
10.05.2016 18,6 C 74 % 1007,1 hPa 1,7 l/m 0,4 km/h W 13,5 C 18,6 C 0,2 km/h
11.05.2016 16,3 C 80 % 1000,8 hPa 0,0 l/m 1,0 km/h W-NW 12,8 C 16,3 C 0,5 km/h
12.05.2016 13,6 C 83 % 997,0 hPa 14,5 l/m 4,2 km/h S 10,7 C 12,7 C 2,3 km/h
13.05.2016 13,8 C 79 % 998,6 hPa 2,9 l/m 0,5 km/h N 10,2 C 13,8 C 0,3 km/h
14.05.2016 12,3 C 84 % 1007,6 hPa 5,8 l/m 0,6 km/h N 9,7 C 12,2 C 0,3 km/h
15.05.2016 10,1 C 67 % 1018,1 hPa 0,0 l/m 0,4 km/h N-NO 3,7 C 10,1 C 0,2 km/h
16.05.2016 8,1 C 83 % 1019,0 hPa 4,1 l/m 1,9 km/h SO 5,3 C 7,8 C 1,1 km/h
17.05.2016 13,6 C 69 % 1016,9 hPa 0,0 l/m 1,0 km/h O-NO 7,6 C 13,5 C 0,5 km/h
18.05.2016 16,2 C 64 % 1010,0 hPa 3,3 l/m 4,7 km/h SO 8,8 C 15,6 C 2,6 km/h
19.05.2016 12,5 C 77 % 1010,8 hPa 6,6 l/m 4,5 km/h W-SW 8,4 C 11,6 C 2,5 km/h
20.05.2016 15,6 C 64 % 1018,4 hPa 0,0 l/m 1,9 km/h W 8,0 C 15,4 C 1,1 km/h
21.05.2016 19,2 C 62 % 1015,0 hPa 0,0 l/m 1,3 km/h S-SO 10,5 C 19,1 C 0,7 km/h
22.05.2016 18,5 C 63 % 1009,0 hPa 0,8 l/m 5,3 km/h O-SO 10,4 C 17,7 C 3,0 km/h
23.05.2016 10,4 C 85 % 1012,2 hPa 13,7 l/m 7,4 km/h S-SW 7,9 C 8,7 C 4,1 km/h
24.05.2016 11,9 C 80 % 1013,5 hPa 1,7 l/m 1,1 km/h W 8,6 C 11,8 C 0,6 km/h
25.05.2016 15,3 C 70 % 1011,8 hPa 0,0 l/m 1,1 km/h O-NO 9,5 C 15,3 C 0,6 km/h
26.05.2016 18,6 C 67 % 1012,1 hPa 0,0 l/m 0,1 km/h W 11,5 C 18,6 C 0,1 km/h
27.05.2016 21,4 C 66 % 1011,2 hPa 0,0 l/m 0,5 km/h O-NO 13,9 C 21,4 C 0,3 km/h
28.05.2016 22,3 C 66 % 1009,0 hPa 0,0 l/m 3,5 km/h O-NO 14,8 C 22,0 C 2,0 km/h
29.05.2016 17,1 C 80 % 1004,5 hPa 3,3 l/m 1,3 km/h SO 13,6 C 17,0 C 0,7 km/h
30.05.2016 14,9 C 82 % 1004,6 hPa 6,6 l/m 13,5 km/h S-SW 11,9 C 11,7 C 7,5 km/h
31.05.2016 17,1 C 70 % 1008,5 hPa 0,0 l/m 10,6 km/h W 11,4 C 15,2 C 5,9 km/h
01.06.2016 18,0 C 68 % 1011,6 hPa 0,0 l/m 0,3 km/h N 11,6 C 18,0 C 0,2 km/h
02.06.2016 16,7 C 77 % 1008,6 hPa 1,7 l/m 3,1 km/h W-SW 12,6 C 16,3 C 1,7 km/h
03.06.2016 17,7 C 77 % 1008,6 hPa 0,8 l/m 2,5 km/h W 13,6 C 17,5 C 1,4 km/h
04.06.2016 17,0 C 79 % 1010,3 hPa 15,3 l/m 2,3 km/h W 13,2 C 16,7 C 1,3 km/h
05.06.2016 18,6 C 78 % 1014,1 hPa 2,5 l/m 1,0 km/h N-NO 14,4 C 18,5 C 0,6 km/h
06.06.2016 19,5 C 75 % 1016,0 hPa 2,5 l/m 1,1 km/h O-SO 14,7 C 19,4 C 0,6 km/h
07.06.2016 19,8 C 76 % 1017,7 hPa 0,8 l/m 2,2 km/h SO 15,1 C 19,5 C 1,2 km/h
08.06.2016 18,0 C 81 % 1016,4 hPa 12,0 l/m 0,9 km/h O-SO 14,6 C 17,8 C 0,5 km/h
09.06.2016 19,6 C 66 % 1014,4 hPa 0,0 l/m 2,2 km/h W-SW 12,5 C 19,4 C 1,2 km/h
10.06.2016 20,2 C 64 % 1010,0 hPa 0,0 l/m 1,6 km/h SO 12,2 C 20,2 C 0,9 km/h
11.06.2016 18,0 C 76 % 1008,5 hPa 3,3 l/m 9,1 km/h SW 13,5 C 16,7 C 5,1 km/h
12.06.2016 16,4 C 82 % 1008,6 hPa 4,1 l/m 10,6 km/h S-SW 13,2 C 14,5 C 5,9 km/h
13.06.2016 14,9 C 83 % 1003,6 hPa 42,3 l/m 3,9 km/h SO 12,2 C 14,3 C 2,2 km/h
14.06.2016 14,6 C 83 % 1001,2 hPa 1,7 l/m 4,8 km/h S-SO 11,7 C 13,7 C 2,7 km/h
15.06.2016 15,7 C 76 % 1000,5 hPa 2,9 l/m 6,2 km/h O-NO 11,1 C 14,7 C 3,4 km/h
16.06.2016 15,0 C 81 % 1001,0 hPa 4,6 l/m 0,5 km/h SO 11,7 C 15,0 C 0,3 km/h
17.06.2016 15,8 C 76 % 1007,8 hPa 2,5 l/m 8,9 km/h SW 11,4 C 14,0 C 5,0 km/h
18.06.2016 15,9 C 76 % 1015,7 hPa 2,5 l/m 4,0 km/h O-SO 11,5 C 15,3 C 2,2 km/h
19.06.2016 16,4 C 71 % 1020,7 hPa 3,7 l/m 1,3 km/h N-NO 10,9 C 16,3 C 0,7 km/h
20.06.2016 17,6 C 67 % 1019,9 hPa 0,0 l/m 3,3 km/h SO 10,9 C 17,3 C 1,8 km/h
21.06.2016 19,1 C 76 % 1019,6 hPa 3,7 l/m 9,6 km/h SO 14,7 C 17,7 C 5,3 km/h
22.06.2016 24,1 C 68 % 1020,0 hPa 0,0 l/m 0,7 km/h SO 17,2 C 24,1 C 0,4 km/h
23.06.2016 27,4 C 63 % 1016,6 hPa 0,0 l/m 0,6 km/h O 18,8 C 27,4 C 0,3 km/h
24.06.2016 27,3 C 61 % 1014,1 hPa 0,0 l/m 5,0 km/h W 18,3 C 27,2 C 2,8 km/h
25.06.2016 20,6 C 77 % 1012,8 hPa 23,2 l/m 2,7 km/h SO 16,4 C 20,4 C 1,5 km/h
26.06.2016 19,2 C 66 % 1016,6 hPa 0,4 l/m 1,4 km/h SO 12,0 C 19,2 C 0,8 km/h
27.06.2016 19,5 C 64 % 1018,8 hPa 0,0 l/m 2,1 km/h O-SO 11,9 C 19,3 C 1,2 km/h
28.06.2016 21,7 C 67 % 1015,3 hPa 0,0 l/m 3,3 km/h O-SO 14,6 C 21,5 C 1,8 km/h
29.06.2016 22,0 C 68 % 1012,3 hPa 0,0 l/m 6,0 km/h W 15,2 C 21,5 C 3,3 km/h
30.06.2016 21,2 C 72 % 1013,0 hPa 2,1 l/m 4,0 km/h W-SW 15,6 C 20,8 C 2,2 km/h
01.07.2016 22,6 C 66 % 1014,2 hPa 0,0 l/m 5,7 km/h O-SO 15,4 C 22,2 C 3,2 km/h
02.07.2016 17,0 C 81 % 1015,1 hPa 6,6 l/m 4,1 km/h SO 13,7 C 16,3 C 2,3 km/h
03.07.2016 17,5 C 67 % 1019,3 hPa 0,0 l/m 2,4 km/h SO 10,7 C 17,3 C 1,3 km/h
04.07.2016 21,6 C 63 % 1018,0 hPa 0,0 l/m 0,7 km/h W 13,4 C 21,6 C 0,4 km/h
05.07.2016 22,0 C 66 % 1015,3 hPa 0,0 l/m 2,1 km/h SO 14,6 C 21,9 C 1,2 km/h
11.07.2016 27,8 C 56 % 995,1 hPa 5,2 l/m 15,4 km/h W-SW 17,7 C 27,1 C 8,6 km/h
12.07.2016 19,3 C 80 % 1011,9 hPa 2,1 l/m 0,4 km/h SO 15,6 C 19,3 C 0,2 km/h
13.07.2016 15,4 C 80 % 1013,7 hPa 11,9 l/m 3,5 km/h W-SW 11,8 C 14,8 C 1,9 km/h
14.07.2016 14,7 C 75 % 1018,0 hPa 4,7 l/m 1,9 km/h W-SW 10,1 C 14,5 C 1,1 km/h
15.07.2016 16,4 C 67 % 1023,7 hPa 0,0 l/m 0,6 km/h SO 9,5 C 16,4 C 0,3 km/h
16.07.2016 18,5 C 62 % 1023,2 hPa 0,0 l/m 1,1 km/h O-SO 10,1 C 18,5 C 0,6 km/h
17.07.2016 22,7 C 60 % 1020,0 hPa 0,0 l/m 0,7 km/h N-NO 13,6 C 22,7 C 0,4 km/h
18.07.2016 25,1 C 61 % 1018,6 hPa 0,0 l/m 1,7 km/h N-NO 16,2 C 25,0 C 1,0 km/h
19.07.2016 26,3 C 62 % 1016,8 hPa 0,0 l/m 0,8 km/h W-NW 17,7 C 26,3 C 0,4 km/h
20.07.2016 27,9 C 58 % 1012,7 hPa 0,0 l/m 1,2 km/h W 17,5 C 27,9 C 0,7 km/h
21.07.2016 26,0 C 64 % 1013,2 hPa 2,1 l/m 1,6 km/h N 18,0 C 25,9 C 0,9 km/h
22.07.2016 21,7 C 73 % 1012,9 hPa 5,7 l/m 1,7 km/h SO 16,4 C 21,6 C 0,9 km/h
23.07.2016 23,0 C 69 % 1014,8 hPa 0,0 l/m 3,0 km/h SO 16,5 C 22,8 C 1,6 km/h
24.07.2016 23,6 C 69 % 1016,6 hPa 0,0 l/m 0,6 km/h N-NO 17,1 C 23,6 C 0,4 km/h
25.07.2016 24,0 C 67 % 1016,8 hPa 0,0 l/m 0,6 km/h N-NO 16,8 C 24,0 C 0,4 km/h
26.07.2016 24,6 C 63 % 1016,7 hPa 0,0 l/m 2,0 km/h N-NO 16,2 C 24,6 C 1,1 km/h
27.07.2016 23,3 C 65 % 1015,6 hPa 0,0 l/m 0,9 km/h N-NO 15,7 C 23,2 C 0,5 km/h
28.07.2016 22,4 C 65 % 1015,0 hPa 0,0 l/m 4,3 km/h O-SO 15,0 C 22,2 C 2,4 km/h
29.07.2016 19,3 C 80 % 1014,5 hPa 4,7 l/m 0,9 km/h O-NO 15,6 C 19,2 C 0,5 km/h
02.08.2016 18,3 C 74 % 1016,3 hPa 6,2 l/m 3,4 km/h O-SO 13,5 C 17,9 C 1,9 km/h
03.08.2016 21,8 C 64 % 1013,7 hPa 0,0 l/m 4,7 km/h O-SO 14,0 C 21,5 C 2,6 km/h
04.08.2016 20,1 C 71 % 1011,2 hPa 10,9 l/m 0,8 km/h SO 14,1 C 20,0 C 0,4 km/h
05.08.2016 17,2 C 77 % 1017,0 hPa 2,6 l/m 2,2 km/h N-NW 13,0 C 16,9 C 1,2 km/h
06.08.2016 20,0 C 64 % 1023,7 hPa 0,0 l/m 1,2 km/h O-SO 12,2 C 19,9 C 0,7 km/h
07.08.2016 21,6 C 63 % 1024,5 hPa 0,0 l/m 0,0 km/h W 13,5 C 21,6 C 0,0 km/h
08.08.2016 22,9 C 63 % 1019,0 hPa 0,0 l/m 0,7 km/h SO 14,8 C 22,9 C 0,4 km/h
09.08.2016 18,7 C 71 % 1018,4 hPa 1,6 l/m 1,0 km/h SO 13,0 C 18,6 C 0,6 km/h
10.08.2016 16,2 C 68 % 1018,8 hPa 2,6 l/m 1,7 km/h O-NO 9,5 C 16,1 C 1,0 km/h
11.08.2016 16,4 C 64 % 1022,0 hPa 0,5 l/m 1,7 km/h N-NO 8,8 C 16,3 C 1,0 km/h
12.08.2016 20,5 C 63 % 1023,2 hPa 0,0 l/m 2,2 km/h SO 12,4 C 20,5 C 1,2 km/h
13.08.2016 23,4 C 61 % 1021,2 hPa 0,0 l/m 0,8 km/h N-NO 14,3 C 23,4 C 0,4 km/h
14.08.2016 24,1 C 62 % 1018,9 hPa 0,0 l/m 0,7 km/h N-NO 15,6 C 24,1 C 0,4 km/h
15.08.2016 24,4 C 63 % 1016,6 hPa 0,0 l/m 0,4 km/h W-NW 16,0 C 24,4 C 0,2 km/h
16.08.2016 23,4 C 63 % 1013,0 hPa 0,0 l/m 1,1 km/h N-NO 15,1 C 23,4 C 0,6 km/h
17.08.2016 22,0 C 67 % 1009,4 hPa 0,0 l/m 1,0 km/h W-SW 15,0 C 21,9 C 0,6 km/h
18.08.2016 18,7 C 78 % 1008,3 hPa 0,5 l/m 2,6 km/h N-NW 14,7 C 18,4 C 1,5 km/h
19.08.2016 21,1 C 67 % 1009,4 hPa 0,0 l/m 3,3 km/h W 14,3 C 20,8 C 1,8 km/h
20.08.2016 17,6 C 79 % 1012,7 hPa 5,2 l/m 1,3 km/h SO 13,9 C 17,4 C 0,7 km/h
21.08.2016 17,3 C 65 % 1019,5 hPa 0,0 l/m 6,5 km/h W 10,3 C 16,5 C 3,6 km/h
22.08.2016 20,5 C 62 % 1025,2 hPa 0,0 l/m 0,5 km/h SO 11,8 C 20,5 C 0,3 km/h
23.08.2016 22,8 C 65 % 1023,2 hPa 0,0 l/m 1,9 km/h NO 14,9 C 22,8 C 1,1 km/h
24.08.2016 24,5 C 64 % 1018,4 hPa 0,0 l/m 1,1 km/h NO 16,3 C 24,5 C 0,6 km/h
25.08.2016 26,1 C 58 % 1014,7 hPa 0,0 l/m 0,4 km/h O-SO 15,5 C 26,1 C 0,2 km/h
26.08.2016 27,3 C 57 % 1014,4 hPa 0,0 l/m 1,4 km/h NW 16,3 C 27,3 C 0,8 km/h
27.08.2016 18,1 C 78 % 1015,0 hPa 0,0 l/m 0,0 km/h NO 14,3 C 18,1 C 0,0 km/h
01.09.2016 28,4 C 43 % 1019,8 hPa 78,2 l/m 1,6 km/h N 13,5 C 28,4 C 0,9 km/h
02.09.2016 21,7 C 61 % 1018,6 hPa 0,0 l/m 1,1 km/h N 12,8 C 21,5 C 0,6 km/h
03.09.2016 21,5 C 62 % 1016,7 hPa 0,0 l/m 1,4 km/h O-NO 13,0 C 21,5 C 0,8 km/h
04.09.2016 18,4 C 73 % 1014,5 hPa 5,7 l/m 3,9 km/h O-SO 13,1 C 17,9 C 2,2 km/h
05.09.2016 18,8 C 72 % 1018,8 hPa 8,3 l/m 1,5 km/h S 13,3 C 18,7 C 0,9 km/h
06.09.2016 20,2 C 63 % 1021,9 hPa 0,0 l/m 1,0 km/h O-SO 11,8 C 20,2 C 0,6 km/h
07.09.2016 20,1 C 55 % 1015,9 hPa 0,0 l/m 1,8 km/h W-NW 6,8 C 20,0 C 1,0 km/h
08.09.2016 20,9 C 55 % 1011,9 hPa 0,0 l/m 5,3 km/h SO 7,1 C 20,7 C 3,0 km/h
09.09.2016 22,3 C 66 % 1014,3 hPa 0,0 l/m 2,4 km/h SO 14,9 C 22,3 C 1,3 km/h
10.09.2016 23,0 C 64 % 1013,7 hPa 0,0 l/m 0,9 km/h NO 14,8 C 22,9 C 0,5 km/h
11.09.2016 23,0 C 65 % 1014,9 hPa 0,0 l/m 0,3 km/h NO 15,2 C 23,0 C 0,2 km/h
12.09.2016 23,5 C 63 % 1014,4 hPa 0,0 l/m 1,6 km/h NO 14,7 C 23,5 C 0,9 km/h
13.09.2016 24,0 C 63 % 1012,0 hPa 0,0 l/m 0,2 km/h W 15,4 C 24,0 C 0,1 km/h
14.09.2016 23,5 C 65 % 1009,4 hPa 0,0 l/m 2,1 km/h NO 15,4 C 23,3 C 1,2 km/h
15.09.2016 18,8 C 77 % 1009,1 hPa 0,5 l/m 1,5 km/h N-NO 14,7 C 18,6 C 0,9 km/h
16.09.2016 17,0 C 74 % 1012,8 hPa 0,0 l/m 0,0 km/h W 12,2 C 17,0 C 0,0 km/h
17.09.2016 17,6 C 71 % 1012,6 hPa 0,0 l/m 5,5 km/h S-SW 11,9 C 17,0 C 3,0 km/h
21.09.2016 22,7 C 44 % 1014,9 hPa 19,2 l/m 6,9 km/h N-NO 9,1 C 22,2 C 3,9 km/h
22.09.2016 14,5 C 67 % 1018,4 hPa 0,0 l/m 0,6 km/h N-NO 7,6 C 14,4 C 0,3 km/h
23.09.2016 15,7 C 68 % 1022,2 hPa 0,0 l/m 1,2 km/h O-SO 9,1 C 15,5 C 0,6 km/h
24.09.2016 16,4 C 68 % 1021,6 hPa 0,0 l/m 0,0 km/h W 9,8 C 16,4 C 0,0 km/h
25.09.2016 17,7 C 67 % 1017,6 hPa 0,5 l/m 1,3 km/h O-SO 10,8 C 17,6 C 0,7 km/h
26.09.2016 18,3 C 73 % 1019,0 hPa 0,0 l/m 1,4 km/h O-SO 13,1 C 18,1 C 0,8 km/h
27.09.2016 18,0 C 72 % 1022,4 hPa 0,5 l/m 0,6 km/h O-NO 12,5 C 18,0 C 0,4 km/h
28.09.2016 17,1 C 68 % 1026,1 hPa 0,0 l/m 3,2 km/h O-SO 10,6 C 16,8 C 1,8 km/h
29.09.2016 18,8 C 65 % 1021,1 hPa 0,0 l/m 6,4 km/h O-SO 10,9 C 18,3 C 3,5 km/h
09.10.2016 8,4 C 81 % 1020,8 hPa 5,7 l/m 0,0 km/h W 5,4 C 8,4 C 0,0 km/h
10.10.2016 7,4 C 79 % 1019,7 hPa 0,5 l/m 0,1 km/h N 3,9 C 7,4 C 0,0 km/h
11.10.2016 8,0 C 77 % 1015,5 hPa 0,5 l/m 0,7 km/h N-NO 4,0 C 8,0 C 0,4 km/h
12.10.2016 6,8 C 72 % 1013,9 hPa 0,0 l/m 0,0 km/h NO 1,6 C 6,8 C 0,0 km/h
13.10.2016 4,3 C 82 % 1009,6 hPa 0,0 l/m 0,0 km/h O-NO 1,5 C 4,3 C 0,0 km/h
14.10.2016 8,1 C 81 % 1004,3 hPa 0,0 l/m 0,1 km/h NO 4,9 C 8,1 C 0,0 km/h
15.10.2016 13,0 C 70 % 1011,0 hPa 0,0 l/m 5,1 km/h NO 7,3 C 12,0 C 2,8 km/h
16.10.2016 12,2 C 73 % 1018,2 hPa 0,0 l/m 0,7 km/h W 6,9 C 12,2 C 0,4 km/h
17.10.2016 12,1 C 81 % 1020,0 hPa 2,1 l/m 0,1 km/h N-NO 8,9 C 12,1 C 0,1 km/h
18.10.2016 13,2 C 76 % 1020,6 hPa 7,8 l/m 0,2 km/h SO 9,1 C 13,2 C 0,1 km/h
19.10.2016 11,5 C 76 % 1017,3 hPa 0,5 l/m 5,7 km/h W-SW 7,3 C 10,2 C 3,2 km/h
20.10.2016 9,5 C 81 % 1013,3 hPa 0,5 l/m 5,0 km/h SW 6,3 C 8,3 C 2,8 km/h
21.10.2016 8,7 C 81 % 1012,8 hPa 4,7 l/m 1,4 km/h W-NW 5,6 C 8,3 C 0,8 km/h
22.10.2016 9,0 C 71 % 1012,5 hPa 0,0 l/m 0,1 km/h N-NO 3,5 C 9,0 C 0,0 km/h
23.10.2016 5,5 C 84 % 1009,4 hPa 3,6 l/m 0,3 km/h W-NW 2,9 C 5,5 C 0,2 km/h
24.10.2016 11,4 C 79 % 1010,2 hPa 3,1 l/m 0,0 km/h N-NO 8,0 C 11,4 C 0,0 km/h
25.10.2016 13,6 C 74 % 1018,7 hPa 12,9 l/m 0,1 km/h NW 8,9 C 13,6 C 0,0 km/h
26.10.2016 11,5 C 81 % 1024,3 hPa 0,0 l/m 0,4 km/h N 8,4 C 11,5 C 0,2 km/h
27.10.2016 10,4 C 76 % 1030,3 hPa 0,0 l/m 0,0 km/h NO 6,0 C 10,4 C 0,0 km/h
28.10.2016 8,2 C 79 % 1031,7 hPa 0,0 l/m 0,1 km/h O-NO 4,8 C 8,2 C 0,0 km/h
29.10.2016 9,0 C 77 % 1030,5 hPa 0,0 l/m 0,0 km/h N-NO 5,0 C 9,0 C 0,0 km/h
30.10.2016 5,6 C 81 % 1026,6 hPa 0,0 l/m 0,2 km/h S-SO 2,6 C 5,6 C 0,1 km/h
31.10.2016 5,8 C 78 % 1024,4 hPa 0,0 l/m 0,0 km/h S 2,3 C 5,8 C 0,0 km/h
01.11.2016 9,9 C 74 % 1018,0 hPa 0,0 l/m 0,2 km/h O 5,4 C 9,9 C 0,1 km/h
02.11.2016 8,1 C 84 % 1017,4 hPa 0,0 l/m 0,3 km/h W 5,5 C 8,0 C 0,2 km/h
03.11.2016 5,6 C 74 % 1019,1 hPa 0,0 l/m 0,3 km/h W-NW 1,1 C 5,6 C 0,2 km/h
04.11.2016 6,1 C 78 % 1012,3 hPa 0,0 l/m 0,0 km/h W-NW 2,4 C 6,1 C 0,0 km/h
05.11.2016 9,9 C 82 % 1000,7 hPa 10,9 l/m 0,2 km/h N 7,0 C 9,9 C 0,1 km/h
06.11.2016 5,4 C 83 % 1001,1 hPa 4,7 l/m 0,9 km/h O-SO 2,7 C 5,3 C 0,5 km/h
07.11.2016 3,2 C 83 % 1005,8 hPa 1,0 l/m 0,7 km/h SO 0,5 C 3,1 C 0,4 km/h
08.11.2016 1,6 C 83 % 1008,2 hPa 0,5 l/m 0,8 km/h O-SO -1,0 C 1,4 C 0,5 km/h
09.11.2016 5,1 C 80 % 1003,7 hPa 2,6 l/m 7,2 km/h SO 1,9 C 2,6 C 4,0 km/h
10.11.2016 7,3 C 84 % 1006,9 hPa 4,1 l/m 12,9 km/h SW 4,8 C 2,9 C 7,2 km/h
11.11.2016 5,7 C 85 % 1012,3 hPa 6,7 l/m 2,3 km/h W-NW 3,3 C 5,0 C 1,3 km/h
12.11.2016 3,9 C 84 % 1020,1 hPa 1,6 l/m 0,0 km/h W-NW 1,4 C 3,9 C 0,0 km/h
13.11.2016 3,3 C 83 % 1021,0 hPa 0,0 l/m 0,0 km/h W 0,7 C 3,3 C 0,0 km/h
14.11.2016 0,8 C 85 % 1027,9 hPa 0,0 l/m 0,0 km/h W -1,5 C 0,8 C 0,0 km/h
15.11.2016 4,3 C 80 % 1028,0 hPa 0,5 l/m 0,1 km/h SO 1,0 C 4,3 C 0,0 km/h
16.11.2016 9,1 C 82 % 1020,3 hPa 5,2 l/m 7,2 km/h O-SO 6,2 C 7,0 C 4,0 km/h
17.11.2016 11,2 C 82 % 1011,7 hPa 0,0 l/m 15,6 km/h SW 8,2 C 7,0 C 8,7 km/h
18.11.2016 10,8 C 79 % 1004,4 hPa 9,3 l/m 8,8 km/h S 7,3 C 8,6 C 4,9 km/h
19.11.2016 6,4 C 83 % 1008,3 hPa 4,1 l/m 5,6 km/h O-SO 3,6 C 4,4 C 3,1 km/h
20.11.2016 8,7 C 72 % 1002,9 hPa 0,0 l/m 2,8 km/h O-NO 3,3 C 8,2 C 1,6 km/h
21.11.2016 7,5 C 81 % 1001,0 hPa 0,0 l/m 0,5 km/h O-SO 4,5 C 7,4 C 0,3 km/h
22.11.2016 8,8 C 83 % 1008,6 hPa 0,0 l/m 0,0 km/h N 6,0 C 8,8 C 0,0 km/h
23.11.2016 6,5 C 79 % 1012,7 hPa 0,0 l/m 0,0 km/h O-NO 3,1 C 6,5 C 0,0 km/h
24.11.2016 6,3 C 73 % 1011,8 hPa 0,0 l/m 0,0 km/h W 1,9 C 6,3 C 0,0 km/h
25.11.2016 6,2 C 79 % 1011,7 hPa 0,0 l/m 0,1 km/h W 2,8 C 6,2 C 0,0 km/h
26.11.2016 7,5 C 86 % 1014,6 hPa 0,0 l/m 0,0 km/h W-NW 5,3 C 7,5 C 0,0 km/h
27.11.2016 6,2 C 83 % 1015,0 hPa 0,0 l/m 0,1 km/h W-NW 3,6 C 6,2 C 0,0 km/h
28.11.2016 4,4 C 67 % 1019,5 hPa 0,0 l/m 0,4 km/h N-NO -1,6 C 4,4 C 0,2 km/h
29.11.2016 -0,4 C 70 % 1027,1 hPa 0,0 l/m 0,0 km/h W-NW -5,5 C -0,4 C 0,0 km/h
30.11.2016 0,1 C 75 % 1030,4 hPa 0,0 l/m 0,1 km/h O-SO -4,2 C 0,1 C 0,0 km/h
01.12.2016 1,1 C 78 % 1026,1 hPa 0,0 l/m 0,0 km/h O-SO -2,5 C 1,1 C 0,0 km/h
02.12.2016 0,9 C 81 % 1020,4 hPa 0,0 l/m 0,0 km/h O -2,1 C 0,9 C 0,0 km/h
03.12.2016 1,8 C 81 % 1018,2 hPa 0,0 l/m 0,1 km/h S-SO -1,2 C 1,8 C 0,0 km/h
04.12.2016 -1,5 C 80 % 1022,3 hPa 0,0 l/m 0,0 km/h SO -4,6 C -1,5 C 0,0 km/h
05.12.2016 -1,8 C 82 % 1024,5 hPa 0,0 l/m 0,0 km/h N-NW -4,5 C -1,8 C 0,0 km/h
06.12.2016 -2,0 C 85 % 1028,2 hPa 0,0 l/m 0,0 km/h W-NW -4,2 C -2,0 C 0,0 km/h
07.12.2016 -2,4 C 84 % 1031,7 hPa 0,0 l/m 0,0 km/h SO -4,7 C -2,4 C 0,0 km/h
08.12.2016 1,0 C 81 % 1030,6 hPa 0,0 l/m 0,0 km/h O-NO -1,9 C 1,0 C 0,0 km/h
09.12.2016 3,4 C 76 % 1029,1 hPa 0,0 l/m 0,0 km/h O -0,7 C 3,4 C 0,0 km/h
10.12.2016 3,7 C 73 % 1024,6 hPa 0,0 l/m 0,0 km/h O -1,2 C 3,7 C 0,0 km/h
11.12.2016 1,7 C 86 % 1022,3 hPa 0,0 l/m 0,0 km/h O -0,4 C 1,7 C 0,0 km/h
12.12.2016 3,6 C 80 % 1023,7 hPa 0,0 l/m 0,1 km/h O-NO 0,3 C 3,6 C 0,1 km/h
13.12.2016 -0,3 C 85 % 1023,8 hPa 0,0 l/m 0,0 km/h W -2,5 C -0,3 C 0,0 km/h
14.12.2016 3,1 C 82 % 1022,0 hPa 0,0 l/m 0,0 km/h W-NW 0,2 C 3,1 C 0,0 km/h
15.12.2016 -0,5 C 82 % 1023,3 hPa 0,0 l/m 0,0 km/h O-NO -3,2 C -0,5 C 0,0 km/h
16.12.2016 -0,8 C 78 % 1026,9 hPa 0,0 l/m 0,0 km/h N-NO -4,2 C -0,8 C 0,0 km/h
17.12.2016 -0,3 C 79 % 1034,5 hPa 0,0 l/m 0,0 km/h O-SO -3,5 C -0,3 C 0,0 km/h
18.12.2016 1,5 C 77 % 1032,4 hPa 0,0 l/m 0,0 km/h O -2,0 C 1,5 C 0,0 km/h
19.12.2016 3,5 C 75 % 1022,2 hPa 0,0 l/m 0,0 km/h N-NO -0,8 C 3,5 C 0,0 km/h
20.12.2016 -1,2 C 86 % 1020,3 hPa 0,0 l/m 0,0 km/h NO -3,3 C -1,2 C 0,0 km/h
21.12.2016 -1,3 C 85 % 1026,6 hPa 0,0 l/m 0,0 km/h SO -3,5 C -1,3 C 0,0 km/h
22.12.2016 1,5 C 82 % 1028,7 hPa 0,0 l/m 0,2 km/h N-NO -1,2 C 1,5 C 0,1 km/h
23.12.2016 5,6 C 80 % 1031,3 hPa 0,0 l/m 0,1 km/h W 2,4 C 5,6 C 0,1 km/h
24.12.2016 7,3 C 83 % 1029,3 hPa 0,0 l/m 13,1 km/h S-SW 4,7 C 2,9 C 7,3 km/h
25.12.2016 7,9 C 80 % 1029,2 hPa 0,0 l/m 13,3 km/h W 4,6 C 3,4 C 7,4 km/h
26.12.2016 5,9 C 83 % 1029,8 hPa 0,0 l/m 4,2 km/h SO 3,3 C 4,8 C 2,3 km/h
27.12.2016 3,3 C 78 % 1038,5 hPa 0,0 l/m 0,0 km/h SO -0,5 C 3,3 C 0,0 km/h
28.12.2016 -0,1 C 80 % 1039,7 hPa 0,0 l/m 0,0 km/h O -3,2 C -0,1 C 0,0 km/h
29.12.2016 -3,6 C 86 % 1035,6 hPa 0,0 l/m 0,0 km/h O-SO -5,6 C -3,6 C 0,0 km/h
30.12.2016 -4,3 C 86 % 1035,0 hPa 0,0 l/m 0,0 km/h O -6,3 C -4,3 C 0,0 km/h
31.12.2016 -4,9 C 86 % 1031,2 hPa 0,0 l/m 0,0 km/h S -6,9 C -4,9 C 0,0 km/h
Min-Datum 18.01.16 27.02.16 11.07.16 153 Tage 01.01.16 - 27.02.16 15.01.16 01.01.16
Min-Zeit 04:42 12:42 11:56 - 00:42 - 12:42 06:42 00:42
Minimum -11,6 C 0 % 983,6 hPa - 0,0 km/h - -60,0 C -13,9 C 0,0 km/h
Max-Datum 23.06.16 01.01.16 27.12.16 01.09.16 08.02.16 - 23.06.16 23.06.16 08.02.16
Max-Zeit 17:41 13:42 20:10 10:12 11:42 - 14:41 17:41 11:42
Maximum 42,4 C 89 % 1041,3 hPa 78,2 l/m 64,8 km/h
W
- 23,3 C 42,4 C 36,0 km/h
W
Durchschnitt 11,3 C 75 % 1014,8 hPa #779,3 l/m 3,3 km/h SO 6,4 C 10,5 C 1,8 km/h

Durchschnitt Minimum Temp.5,7 C
Durchschnitt Maximum Temp.19,0 C
www.sexauwetter.de